Theta_e
286 286 284 284 283 283 281 281 281 280 279 279 279 278 278 277 277 276 276 276 276 276 276 276 276 276 275 274 274 275 274 273 270 272 273 275 274 274 275 275 276 275 276
285 284 284 283 282 281 280 280 280 279 279 279 278 278 277 277 276 276 275 276 275 275 276 275 275 277 274 274 273 273 273 273 271 270 273 273 273 274 274 274 276 277 276
283 283 282 281 281 280 279 279 279 279 278 278 278 277 276 276 276 276 276 275 275 275 275 275 275 274 274 273 272 272 272 274 272 271 271 273 273 274 274 275 275 275 277
283 282 281 281 281 280 280 279 279 278 278 278 277 277 276 275 275 275 275 275 274 275 275 275 274 274 274 273 273 273 274 273 273 272 272 272 273 274 275 273 273 275 275
283 282 282 282 281 280 279 279 279 278 278 278 276 275 275 275 275 275 275 275 275 274 275 275 275 274 277 276 275 273 273 271 272 272 272 272 272 272 272 273 272 273 274
283 282 282 281 281 280 280 279 278 278 277 277 276 275 274 274 279 281 277 275 275 275 274 274 274 274 274 278 278 278 278 272 265 267 272 272 272 272 272 272 273 270 268
283 283 282 282 281 280 280 279 278 277 276 276 275 275 274 274 281 282 281 275 275 274 274 274 274 275 273 273 275 277 278 278 279 276 272 272 272 272 274 271 271 270 269
283 283 282 282 281 280 279 278 277 277 276 275 275 274 274 273 280 282 281 276 274 274 273 274 273 273 273 273 272 273 273 274 275 276 275 274 274 275 273 272 271 269 269
282 282 282 282 281 280 279 278 277 276 276 275 275 273 273 273 280 281 280 275 275 273 274 273 273 273 275 277 275 272 272 274 277 278 278 277 277 276 274 271 265 265 264
282 283 283 283 282 281 280 279 278 278 277 275 275 274 273 272 278 281 280 274 271 272 273 273 276 273 276 278 275 270 270 271 272 267 269 270 271 270 273 270 269 264 264
283 283 282 282 283 282 281 279 278 276 275 274 273 272 272 271 271 280 280 275 273 270 270 271 272 276 277 278 279 275 272 274 266 264 265 266 267 268 269 270 270 268 265
283 282 282 283 283 282 281 280 276 276 274 273 272 270 270 270 273 277 279 280 278 270 269 271 272 276 278 278 278 279 279 276 261 259 260 264 265 266 268 268 268 269 269
282 282 282 282 282 281 280 277 275 275 274 272 271 271 270 270 270 277 277 279 280 277 274 273 276 277 278 278 277 277 273 264 260 258 261 264 266 267 267 266 267 268 267
281 280 279 279 277 277 278 276 275 273 273 272 270 271 268 267 268 268 270 271 276 277 276 273 274 277 277 275 270 272 268 265 264 263 264 265 266 264 263 265 264 264 263
277 274 274 274 274 272 272 273 274 270 274 271 269 268 264 264 267 271 269 265 263 268 269 259 261 266 268 268 265 265 265 264 263 262 262 262 263 263 263 264 263 262 261
271 271 271 271 269 269 268 266 274 273 276 276 274 268 263 272 274 276 277 277 277 276 272 269 268 267 268 268 266 265 263 262 262 261 260 260 261 261 261 261 262 261 260
271 269 268 268 268 267 266 267 265 267 276 277 278 278 276 273 276 277 278 278 279 279 275 272 266 266 266 265 265 262 262 262 262 261 259 259 260 259 259 259 260 260 259
265 267 267 266 264 263 263 261 261 261 262 261 269 273 274 274 275 275 276 276 269 267 263 262 262 262 263 262 262 261 260 260 260 257 256 255 254 256 257 257 258 258 259
261 259 260 259 259 260 260 259 258 256 256 257 259 266 266 269 270 270 271 261 258 255 255 258 258 260 260 260 260 258 256 255 253 251 251 252 253 252 255 256 258 258 259
258 260 259 259 258 258 258 258 257 256 257 258 260 262 262 260 257 258 256 254 253 255 256 255 255 252 251 250 249 249 249 249 251 251 253 253 253 253 256 256 257 257 257
257 257 258 257 256 255 255 256 257 258 258 258 258 257 264 257 255 254 254 255 253 251 251 250 250 248 251 252 250 249 250 253 252 254 253 252 251 251 252 256 256 257 257
255 254 254 255 256 257 256 259 258 257 254 253 252 253 264 252 248 246 245 246 248 249 250 249 250 249 250 249 249 250 254 254 254 254 252 251 250 247 250 254 255 256 256
256 255 255 255 256 257 255 252 252 251 250 249 248 248 246 246 245 245 247 248 247 248 248 245 248 250 248 249 254 256 255 255 255 253 250 250 245 247 247 252 254 254 255
256 256 255 253 253 252 251 250 249 250 248 247 245 245 246 245 246 248 248 248 248 249 248 248 249 251 250 251 253 255 255 254 252 251 250 246 247 246 246 249 252 254 256
252 252 252 252 251 250 249 248 248 245 245 246 246 245 245 246 247 248 248 249 249 248 249 249 249 251 251 252 254 254 254 256 255 251 245 244 246 245 244 246 251 253 255
251 251 250 249 248 247 246 247 246 246 246 248 247 247 247 248 249 249 250 249 249 250 250 250 250 251 251 253 254 255 255 257 254 250 247 246 246 247 246 248 250 254 255
Wind_Speed
14 13 13 12 12 11 11 11 11 10 10 10 9 9 9 7 6 6 5 5 5 5 4 4 3 2 2 1 1 0 1 0 4 4 2 7 10 12 12 10 11 10 11
11 11 13 12 12 11 11 11 11 12 9 9 9 9 8 7 6 6 6 6 6 5 4 4 3 2 1 1 1 1 1 3 2 10 9 7 11 12 13 13 10 10 11
11 12 10 11 12 12 13 12 11 11 10 8 9 9 8 7 7 6 6 6 5 5 5 4 4 3 1 1 2 2 2 4 3 6 9 8 10 9 13 11 12 11 9
12 13 13 13 14 13 13 12 11 10 11 10 9 9 8 7 6 6 6 6 6 5 4 4 4 3 3 2 3 4 4 3 4 6 8 10 9 11 9 12 14 10 12
14 14 15 13 11 10 12 12 11 11 10 9 10 7 7 7 6 7 6 6 6 5 4 4 3 3 5 6 3 4 4 3 4 6 8 9 9 11 12 12 13 14 13
15 14 12 11 11 11 11 11 11 10 9 9 9 10 9 6 14 15 9 5 5 5 4 4 3 4 5 10 9 10 8 3 4 3 7 9 12 11 11 11 11 14 17
16 14 13 13 13 12 11 11 12 11 9 9 9 9 9 7 16 16 16 5 5 5 4 3 3 3 5 5 9 11 11 14 15 10 9 8 13 12 11 14 15 13 14
15 14 13 14 13 11 11 11 9 8 11 10 9 9 7 8 16 17 16 6 5 5 5 4 5 6 7 7 7 8 9 10 9 7 8 10 9 10 12 11 13 13 13
15 15 14 14 13 12 13 12 10 9 8 9 7 8 10 6 16 16 13 6 6 5 5 5 6 7 11 13 8 8 7 6 9 16 16 15 18 20 15 8 7 10 12
16 16 15 14 14 14 13 13 9 8 10 7 8 8 8 7 15 16 14 4 4 4 5 6 12 9 14 14 9 5 8 5 7 1 4 7 10 11 14 8 7 9 10
11 10 12 13 14 14 12 9 11 10 7 8 7 5 6 7 9 17 17 5 6 5 5 5 6 15 15 16 16 7 6 7 2 1 3 5 5 6 6 6 8 8 9
12 13 12 13 11 10 12 11 9 9 9 8 6 4 4 6 11 17 18 18 13 6 7 6 6 15 16 17 15 14 13 11 1 2 2 5 6 6 6 8 10 10 10
11 12 12 12 11 11 13 11 8 9 8 7 7 7 6 5 5 17 18 19 19 12 5 10 16 16 19 16 10 10 6 1 2 2 5 6 6 7 9 9 10 10 12
11 10 9 11 9 8 7 7 8 8 8 7 7 8 4 4 5 4 5 7 13 11 12 5 8 13 14 12 4 7 2 3 4 5 6 5 6 5 7 6 8 9 10
6 6 6 4 7 6 4 6 7 2 7 6 6 4 5 6 6 11 9 5 3 6 6 1 1 4 6 6 4 4 3 3 4 4 5 5 6 6 7 6 7 8 8
5 5 4 5 4 4 5 2 5 5 10 9 8 7 2 8 8 11 14 15 16 18 9 8 8 7 8 8 6 5 3 5 5 3 3 3 6 6 7 7 6 6 8
5 5 4 5 5 5 3 5 5 2 7 10 11 11 11 9 12 12 13 15 18 16 8 5 2 4 5 6 6 5 4 4 4 3 2 4 5 6 7 7 7 7 8
4 5 4 3 3 4 4 3 3 4 3 0 5 6 6 6 5 7 9 10 3 4 3 2 2 2 4 4 4 3 4 3 3 3 3 3 4 5 6 6 6 7 7
4 3 3 3 3 4 4 4 3 3 3 3 1 3 6 7 7 7 9 2 1 2 2 3 2 4 5 4 4 4 4 3 3 3 3 4 3 3 6 6 7 10 10
4 7 5 4 4 4 4 4 3 3 3 2 2 0 1 3 1 1 1 1 2 2 2 3 3 3 4 4 3 3 3 3 3 3 4 4 3 3 6 6 6 7 7
4 4 6 5 4 4 3 4 3 3 2 2 1 0 5 3 2 1 1 2 2 3 4 4 3 4 4 4 4 3 4 5 3 4 4 4 3 4 4 6 7 6 6
4 4 4 4 4 4 3 3 3 3 3 2 1 2 6 2 1 2 3 4 4 4 4 4 4 4 4 4 4 4 6 6 4 5 4 4 4 4 4 6 6 6 6
4 5 4 3 3 5 3 3 3 3 2 2 1 2 1 2 3 3 4 5 4 4 5 3 5 5 4 5 5 6 6 6 5 4 4 4 3 4 3 6 6 6 6
3 4 4 3 3 3 3 3 2 2 2 2 2 3 3 3 4 5 5 5 4 5 4 4 5 7 5 4 4 5 6 5 3 5 7 4 5 4 3 5 6 7 8
3 2 2 2 2 2 2 2 2 2 3 3 3 3 3 4 4 5 4 4 4 4 6 5 5 7 9 9 9 8 8 11 8 7 4 5 7 6 4 4 7 7 8
3 3 3 2 2 2 2 3 3 3 3 3 4 4 4 4 4 5 5 4 4 5 6 5 6 10 10 8 9 10 11 12 10 10 6 6 6 6 5 7 8 7 8
Wind_Direction
163 162 159 160 156 152 153 147 149 146 152 152 151 139 125 124 131 121 120 133 138 139 128 120 111 109 110 93 71 93 34 29 273 299 321 319 313 319 316 310 304 299 305
160 156 161 156 153 152 154 154 156 156 155 153 146 130 132 132 136 141 156 164 162 158 152 145 146 142 147 128 152 137 268 264 254 293 308 314 311 312 303 305 306 301 296
154 157 155 157 160 164 163 160 157 152 153 155 145 143 143 149 154 166 170 168 170 175 169 175 188 182 211 188 182 249 249 274 257 274 290 302 300 307 310 307 305 306 299
163 162 164 173 174 171 163 161 160 162 159 158 153 147 149 153 165 171 180 180 179 181 184 199 203 201 219 223 243 245 247 240 251 270 285 298 304 310 301 313 314 313 308
173 175 180 171 172 165 161 163 161 166 170 159 148 144 154 166 181 180 189 188 185 183 201 218 216 219 237 234 243 233 232 231 259 275 289 299 304 319 320 318 305 307 309
179 184 173 170 165 172 167 166 167 170 166 158 157 164 171 185 201 197 193 188 190 189 209 227 230 237 246 263 265 277 273 239 223 246 282 296 305 313 310 308 315 317 312
178 177 176 174 175 176 170 171 177 176 164 173 172 177 185 190 203 204 206 190 192 196 204 213 240 223 222 229 263 273 276 278 275 285 295 290 300 308 312 316 314 308 303
178 177 173 174 175 171 172 182 175 175 181 183 186 191 179 205 205 212 210 185 198 201 204 210 223 232 226 231 233 244 246 244 247 260 268 286 286 309 309 308 306 303 297
178 178 178 176 172 174 182 184 179 177 185 192 193 185 191 200 208 216 213 174 202 207 205 216 225 236 248 257 257 252 254 240 257 277 291 303 303 310 309 312 305 308 308
183 183 174 173 176 184 190 186 180 191 198 188 195 194 195 190 211 216 217 166 200 212 217 226 237 235 254 257 256 244 268 241 254 269 296 296 302 298 309 301 300 303 306
167 162 167 179 183 190 186 176 188 191 179 190 199 179 189 186 210 220 223 190 211 210 221 226 227 248 255 257 262 250 214 250 309 283 279 296 295 287 287 289 301 298 295
161 168 177 184 185 178 181 188 187 185 188 191 189 189 203 190 205 225 225 229 221 202 216 225 224 242 252 258 263 261 266 298 19 314 291 297 291 290 293 300 298 290 279
168 182 185 184 186 187 184 179 177 186 193 197 198 213 212 196 207 226 229 239 244 245 216 224 241 247 254 261 288 271 290 163 251 279 279 276 278 289 299 297 293 293 287
171 171 169 174 171 173 176 175 182 186 195 196 199 216 196 178 211 207 232 250 256 241 253 273 264 261 254 264 247 263 157 217 235 251 270 278 291 294 291 293 302 309 306
139 138 149 144 167 159 163 180 192 196 195 191 207 181 172 216 217 218 214 217 216 242 257 24 241 260 260 259 242 220 223 231 242 243 262 278 288 294 293 301 297 302 295
133 149 159 151 144 147 152 106 206 188 202 204 201 189 226 231 228 236 238 240 237 234 240 241 240 229 241 243 237 244 229 234 236 231 238 255 282 290 295 301 294 294 298
142 145 146 150 160 159 147 167 164 274 206 216 221 217 207 214 228 233 240 247 248 256 261 279 210 215 232 234 236 222 239 223 209 220 238 261 276 286 297 292 297 298 299
107 116 139 144 134 126 135 136 129 153 167 248 40 62 52 32 355 328 316 310 351 357 20 346 302 279 267 258 247 245 251 246 235 214 230 238 246 270 287 287 291 293 301
113 112 113 112 115 127 128 124 131 130 144 147 33 60 37 11 353 333 335 71 257 273 268 287 253 282 280 264 256 252 245 235 218 211 232 234 241 234 273 273 282 290 299
88 117 111 116 115 114 121 128 127 122 117 116 109 145 36 53 35 297 288 262 262 243 236 240 258 264 266 258 254 242 251 245 241 227 244 241 241 239 270 278 279 288 295
95 85 98 85 88 98 107 111 114 114 134 149 162 206 219 176 224 220 251 269 253 255 260 253 256 251 245 246 242 239 236 251 230 235 233 236 227 252 239 268 279 278 281
95 102 93 109 110 96 97 104 103 115 133 147 225 292 301 61 140 222 244 251 254 248 250 251 261 243 235 232 233 228 244 248 232 229 240 239 238 239 245 268 273 279 283
88 91 77 70 91 109 96 101 117 128 163 191 207 260 290 262 260 254 253 256 250 251 250 231 246 263 243 230 228 241 245 247 238 209 228 234 220 230 221 258 271 277 278
98 117 125 119 113 114 128 153 168 181 198 224 236 241 241 242 247 251 251 251 254 258 246 247 242 245 249 248 234 239 240 247 225 225 221 215 233 224 216 237 258 263 274
84 93 98 128 132 154 150 178 200 217 227 226 241 236 247 251 257 257 258 254 258 260 268 258 244 244 248 250 252 245 240 258 254 220 199 207 227 220 215 228 255 264 265
109 118 120 123 149 171 189 210 226 224 230 240 240 245 242 263 265 266 265 260 261 263 263 253 244 244 250 255 255 258 259 257 246 229 205 206 223 236 220 236 244 254 260